W6VNY Weather Reports


Display with metric or nautical units.
time (UTC)temp
F
wind
direction
speed
MPH
gust
MPH
rain 1hr
in
rain 24hr
in
rain mn
in
humidity
%
barometer
mb
20210616013005 86 175 4.0 9.0 0.00 0.00 0.00 62 1010.7
20210616012535 86 167 5.0 9.0 0.00 0.00 0.00 61 1010.8
20210616012038 86 186 5.0 9.0 0.00 0.00 0.00 61 1010.8
20210616011651 87 179 5.0 10.0 0.00 0.00 0.00 61 1010.8
20210616010055 88 144 9.0 14.0 0.00 0.00 0.00 56 1010.5
20210616005546 90 161 4.0 12.0 0.00 0.00 0.00 54 1010.4
20210616003513 92 132 6.0 9.0 0.00 0.00 0.00 50 1010.0
20210616003103 92 125 5.0 9.0 0.00 0.00 0.00 49 1010.0
20210616002550 92 147 4.0 10.0 0.00 0.00 0.00 49 1010.1
20210616001010 93 136 6.0 9.0 0.00 0.00 0.00 47 1010.0
20210616000540 93 150 5.0 10.0 0.00 0.00 0.00 47 1009.9
20210615235510 93 133 6.0 11.0 0.00 0.00 0.00 46 1009.9
20210615235031 93 130 7.0 11.0 0.00 0.00 0.00 46 1009.8
20210615234615 93 154 6.0 12.0 0.00 0.00 0.00 46 1009.9
20210615232516 94 140 4.0 10.0 0.00 0.00 0.00 47 1009.9
20210615232029 94 146 5.0 11.0 0.00 0.00 0.00 47 1010.0
20210615231601 94 146 6.0 12.0 0.00 0.00 0.00 46 1010.1
20210615225513 94 103 7.0 13.0 0.00 0.00 0.00 46 1010.2
20210615225032 95 113 7.0 13.0 0.00 0.00 0.00 47 1010.1
20210615224621 95 131 5.0 10.0 0.00 0.00 0.00 45 1010.0
20210615223012 95 148 4.0 11.0 0.00 0.00 0.00 47 1010.0
20210615222526 94 128 5.0 11.0 0.00 0.00 0.00 49 1010.2
20210615222041 94 113 6.0 14.0 0.00 0.00 0.00 50 1010.1
20210615221826 93 128 10.0 14.0 0.00 0.00 0.00 49 1010.1
20210615220120 95 128 7.0 13.0 0.00 0.00 0.00 46 1010.2
20210615215549 96 78 6.0 12.0 0.00 0.00 0.00 39 1010.3
20210615214011 95 122 5.0 13.0 0.00 0.00 0.00 38 1010.5
20210615213541 95 94 8.0 15.0 0.00 0.00 0.00 37 1010.7
20210615213050 95 84 11.0 15.0 0.00 0.00 0.00 36 1010.6
20210615212555 95 172 6.0 14.0 0.00 0.00 0.00 40 1010.6
20210615211019 95 146 3.0 11.0 0.00 0.00 0.00 41 1010.5
20210615210540 95 167 4.0 13.0 0.00 0.00 0.00 42 1010.6
20210615205515 95 104 8.0 12.0 0.00 0.00 0.00 39 1010.7
20210615205031 95 146 4.0 15.0 0.00 0.00 0.00 39 1010.7
20210615204719 95 84 8.0 15.0 0.00 0.00 0.00 41 1010.6
20210615202526 95 86 7.0 13.0 0.00 0.00 0.00 41 1011.1
20210615202041 94 153 1.0 13.0 0.00 0.00 0.00 42 1011.0
20210615201645 94 70 5.0 15.0 0.00 0.00 0.00 42 1011.2
20210615200023 94 109 8.0 14.0 0.00 0.00 0.00 43 1011.3
20210615195531 94 169 5.0 12.0 0.00 0.00 0.00 42 1011.2
20210615194035 94 118 8.0 12.0 0.00 0.00 0.00 44 1011.5
20210615193537 94 100 8.0 14.0 0.00 0.00 0.00 43 1011.7
20210615193158 94 155 6.0 14.0 0.00 0.00 0.00 45 1011.7
20210615191521 93 123 4.0 12.0 0.00 0.00 0.00 47 1011.7
20210615191029 93 86 5.0 14.0 0.00 0.00 0.00 45 1011.9
20210615190545 93 88 9.0 14.0 0.00 0.00 0.00 47 1011.8
20210615185510 93 77 4.0 14.0 0.00 0.00 0.00 45 1011.9
20210615185032 94 111 8.0 14.0 0.00 0.00 0.00 46 1012.0
20210615184644 93 169 3.0 13.0 0.00 0.00 0.00 48 1012.0
20210615184053 92 110 5.0 13.0 0.00 0.00 0.00 48 1012.0
20210615182512 93 145 7.0 12.0 0.00 0.00 0.00 49 1012.2
20210615182056 93 150 4.0 18.0 0.00 0.00 0.00 50 1012.2
20210615181701 93 86 8.0 18.0 0.00 0.00 0.00 49 1012.3
20210615175512 92 48 7.0 13.0 0.00 0.00 0.00 51 1012.5
20210615175113 92 116 3.0 12.0 0.00 0.00 0.00 51 1012.5
20210615174614 92 126 6.0 13.0 0.00 0.00 0.00 50 1012.6
20210615173011 91 44 8.0 13.0 0.00 0.00 0.00 51 1012.6
20210615172518 91 65 5.0 11.0 0.00 0.00 0.00 54 1012.6
20210615172041 91 59 6.0 11.0 0.00 0.00 0.00 53 1012.5
20210615171643 91 116 6.0 13.0 0.00 0.00 0.00 54 1012.8
20210615170020 91 112 7.0 12.0 0.00 0.00 0.00 53 1012.8
20210615165533 91 88 4.0 12.0 0.00 0.00 0.00 53 1012.7
20210615165051 91 96 4.0 11.0 0.00 0.00 0.00 53 1012.8
20210615164707 91 80 6.0 11.0 0.00 0.00 0.00 53 1012.7
20210615163010 90 11 3.0 10.0 0.00 0.00 0.00 53 1012.8
20210615162521 90 74 3.0 10.0 0.00 0.00 0.00 53 1012.9
20210615162157 90 113 4.0 8.0 0.00 0.00 0.00 53 1012.9
20210615161650 90 121 3.0 11.0 0.00 0.00 0.00 55 1012.8
20210615160043 89 62 1.0 11.0 0.00 0.00 0.00 54 1012.7
20210615155613 89 28 4.0 11.0 0.00 0.00 0.00 54 1012.7
20210615155117 89 61 4.0 9.0 0.00 0.00 0.00 54 1012.9
20210615153021 88 64 5.0 10.0 0.00 0.00 0.00 56 1013.1
20210615152526 88 77 5.0 10.0 0.00 0.00 0.00 55 1012.9
20210615152038 88 51 2.0 8.0 0.00 0.00 0.00 58 1013.0
20210615151618 87 97 4.0 10.0 0.00 0.00 0.00 59 1013.0
20210615150046 87 71 4.0 11.0 0.00 0.00 0.00 59 1013.1
20210615145542 86 89 6.0 11.0 0.00 0.00 0.00 59 1013.1
20210615145056 86 69 5.0 9.0 0.00 0.00 0.00 61 1013.1
20210615143025 85 55 6.0 9.0 0.00 0.00 0.00 62 1013.3
20210615142531 85 69 3.0 6.0 0.00 0.00 0.00 63 1013.3
20210615142109 84 38 4.0 6.0 0.00 0.00 0.00 64 1013.1
20210615140017 82 348 3.0 6.0 0.00 0.00 0.00 67 1013.0
20210615135522 82 26 3.0 6.0 0.00 0.00 0.00 67 1013.0
20210615135046 82 20 3.0 5.0 0.00 0.00 0.00 68 1012.9
20210615134722 81 28 1.0 5.0 0.00 0.00 0.00 69 1012.9
20210615133020 79 324 2.0 3.0 0.00 0.00 0.00 71 1012.7
20210615132545 79 300 1.0 3.0 0.00 0.00 0.00 71 1012.6
20210615132050 78 298 0.0 3.0 0.00 0.00 0.00 73 1012.6
20210615130508 77 309 1.0 4.0 0.00 0.00 0.00 73 1012.4
20210615130131 77 308 2.0 4.0 0.00 0.00 0.00 74 1012.3
20210615124514 76 261 1.0 2.0 0.00 0.00 0.00 77 1012.2
20210615124020 75 228 0.0 2.0 0.00 0.00 0.00 77 1012.2
20210615123617 75 264 0.0 3.0 0.00 0.00 0.00 77 1012.1
20210615121522 74 306 1.0 4.0 0.00 0.00 0.00 78 1012.0
20210615121036 74 319 2.0 4.0 0.00 0.00 0.00 78 1011.9
20210615120554 74 188 1.0 3.0 0.00 0.00 0.00 78 1012.0
20210615115517 74 256 1.0 3.0 0.00 0.00 0.00 77 1011.7
20210615115030 74 269 2.0 3.0 0.00 0.00 0.00 77 1011.7
20210615114624 74 298 1.0 3.0 0.00 0.00 0.00 78 1011.6
20210615113018 73 211 0.0 2.0 0.00 0.00 0.00 80 1011.6
20210615112528 73 215 1.0 3.0 0.00 0.00 0.00 80 1011.7
20210615112036 73 225 1.0 3.0 0.00 0.00 0.00 79 1011.7
20210615111606 73 225 2.0 3.0 0.00 0.00 0.00 79 1011.5
20210615110125 74 225 2.0 5.0 0.00 0.00 0.00 77 1011.4
20210615105559 75 225 3.0 5.0 0.00 0.00 0.00 76 1011.5
20210615104015 77 22 1.0 4.0 0.00 0.00 0.00 72 1011.4
20210615103537 77 22 2.0 4.0 0.00 0.00 0.00 72 1011.5
20210615103143 77 22 2.0 5.0 0.00 0.00 0.00 72 1011.5
20210615101512 77 24 2.0 4.0 0.00 0.00 0.00 72 1011.5
20210615101031 77 19 3.0 4.0 0.00 0.00 0.00 72 1011.4
20210615100543 76 17 2.0 4.0 0.00 0.00 0.00 72 1011.4
20210615100131 77 5 2.0 4.0 0.00 0.00 0.00 72 1011.5
20210615094506 77 293 2.0 3.0 0.00 0.00 0.00 72 1011.4
20210615094019 77 293 0.0 3.0 0.00 0.00 0.00 73 1011.4
20210615093559 77 293 1.0 3.0 0.00 0.00 0.00 73 1011.3
20210615093141 77 293 1.0 3.0 0.00 0.00 0.00 73 1011.4
20210615091517 76 293 0.0 0.0 0.00 0.00 0.00 75 1011.3
20210615091030 76 293 0.0 2.0 0.00 0.00 0.00 75 1011.3
20210615090606 76 293 0.0 3.0 0.00 0.00 0.00 75 1011.3
20210615084707 77 293 2.0 3.0 0.00 0.00 0.00 73 1011.3
20210615083030 77 292 0.0 0.0 0.00 0.00 0.00 72 1011.3
20210615082532 77 292 0.0 0.0 0.00 0.00 0.00 72 1011.2
20210615082041 78 292 0.0 0.0 0.00 0.00 0.00 72 1011.2
20210615081707 78 292 0.0 0.0 0.00 0.00 0.00 71 1011.3
20210615080031 77 292 0.0 0.0 0.00 0.00 0.00 73 1011.3
20210615075541 77 292 0.0 0.0 0.00 0.00 0.00 73 1011.3
20210615075102 76 292 0.0 0.0 0.00 0.00 0.00 74 1011.3
20210615073533 76 292 1.0 3.0 0.00 0.00 0.00 75 1011.4
20210615073116 76 292 2.0 3.0 0.00 0.00 0.00 75 1011.5
20210615072600 76 292 2.0 3.0 0.00 0.00 0.00 75 1011.4
20210615071017 76 292 0.0 2.0 0.00 0.00 0.00 75 1011.5
20210615070536 76 292 0.0 3.0 0.00 0.00 0.00 75 1011.5
20210615070237 76 292 1.0 3.0 0.00 0.00 0.00 75 1011.5
20210615065506 76 292 2.0 3.0 0.00 0.00 0.00 75 1011.4
20210615065023 76 292 2.0 3.0 0.00 0.00 0.00 75 1011.3
20210615064612 76 292 2.0 3.0 0.00 0.00 0.00 76 1011.5
20210615064057 76 291 1.0 3.0 0.00 0.00 0.00 76 1011.5
20210615062517 77 292 0.0 1.0 0.00 0.00 0.00 73 1011.5
20210615062033 77 292 0.0 0.0 0.00 0.00 0.00 73 1011.4
20210615061638 77 292 0.0 0.0 0.00 0.00 0.00 73 1011.5
20210615060032 77 292 0.0 0.0 0.00 0.00 0.00 73 1011.5
20210615055537 77 292 0.0 0.0 0.00 0.00 0.00 73 1011.4
20210615055056 77 292 0.0 2.0 0.00 0.00 0.00 73 1011.3
20210615053515 77 292 1.0 4.0 0.00 0.00 0.00 72 1011.4
20210615053156 77 293 2.0 5.0 0.00 0.00 0.00 72 1011.3
20210615052548 77 292 3.0 5.0 0.00 0.00 0.00 73 1011.3
20210615051008 77 277 1.0 3.0 0.00 0.00 0.00 72 1011.2
20210615050525 77 277 1.0 4.0 0.00 0.00 0.00 72 1011.3
20210615045020 77 278 3.0 6.0 0.00 0.00 0.00 72 1011.2
20210615044638 77 277 3.0 6.0 0.00 0.00 0.00 72 1011.2
20210615044048 78 277 2.0 4.0 0.00 0.00 0.00 72 1011.2
20210615042504 78 329 1.0 5.0 0.00 0.00 0.00 71 1011.3
20210615042020 78 317 3.0 6.0 0.00 0.00 0.00 71 1011.3
20210615041557 78 314 3.0 6.0 0.00 0.00 0.00 71 1011.1
20210615041054 78 300 4.0 6.0 0.00 0.00 0.00 71 1011.0
20210615035525 77 247 1.0 4.0 0.00 0.00 0.00 72 1011.0
20210615035031 77 235 0.0 8.0 0.00 0.00 0.00 73 1010.9
20210615034631 77 235 4.0 10.0 0.00 0.00 0.00 73 1010.9
20210615034059 77 249 6.0 10.0 0.00 0.00 0.00 72 1010.7
20210615032550 78 241 0.0 4.0 0.00 0.00 0.00 70 1011.0
20210615032038 78 241 3.0 4.0 0.00 0.00 0.00 70 1011.1
20210615031648 78 222 2.0 4.0 0.00 0.00 0.00 70 1011.1
20210615025504 79 217 3.0 7.0 0.00 0.00 0.00 68 1011.1
20210615025019 79 205 3.0 7.0 0.00 0.00 0.00 68 1011.0
20210615024649 79 202 4.0 7.0 0.00 0.00 0.00 67 1011.0
20210615024113 80 205 3.0 6.0 0.00 0.00 0.00 66 1010.8
20210615022508 80 238 2.0 3.0 0.00 0.00 0.00 63 1010.6
20210615022034 80 238 1.0 3.0 0.00 0.00 0.00 63 1010.5
20210615021631 80 238 2.0 4.0 0.00 0.00 0.00 62 1010.4
20210615021053 80 238 2.0 4.0 0.00 0.00 0.00 62 1010.3
20210615020011 81 234 2.0 5.0 0.00 0.00 0.00 57 1010.1
20210615015533 82 232 3.0 5.0 0.00 0.00 0.00 55 1009.9
20210615015041 82 214 2.0 4.0 0.00 0.00 0.00 55 1009.9
20210615014648 82 200 1.0 6.0 0.00 0.00 0.00 54 1009.8
20210615013509 83 209 4.0 8.0 0.00 0.00 0.00 52 1009.6